Regional Weather Roundup
Issued by NWS

Home | Current Version | Previous Version | Graphics & Text | Print | Product List | Glossary On
Versions: 1 2 3 4 5 6 7 8 9 10 11 12 13 14 15 16 17 18 19 20 21 22 23 24 25 26 27 28 29 30 31 32 33 34 35 36 37 38 39 40 41 42 43 44 45 46 47 48 49 50
367
ASUS43 KFSD 220910
RWRSD

WEATHER ROUNDUP FOR SOUTH DAKOTA
NATIONAL WEATHER SERVICE SIOUX FALLS SD
300 AM CST SUN JAN 22 2017

NOTE: "FAIR" INDICATES FEW OR NO CLOUDS BELOW 12,000 FEET WITH NO
SIGNIFICANT WEATHER AND/OR OBSTRUCTIONS TO VISIBILITY.


SDZ001>005-009-010-012>017-221000-
NORTHWEST AND NORTH CENTRAL SOUTH DAKOTA

CITY           SKY/WX    TMP DP  RH WIND       PRES   REMARKS
BUFFALO          N/A     20  17  88 W9        29.62R WCI   9
FAITH            N/A     21  19  92 NW12      29.67R WCI   9
MOBRIDGE       CLOUDY    16  11  80 N7        29.65R WCI   6
$$

SDZ012>016-024>037-041>051-057-063-072>074-221000-
SOUTHWEST AND SOUTH CENTRAL SOUTH DAKOTA

CITY           SKY/WX    TMP DP  RH WIND       PRES   REMARKS
RAPID CTY ARPT CLOUDY    26  21  81 NW7       29.70R WCI  18
PIERRE         CLOUDY    20  17  88 W7        29.69R WCI  11
CUSTER         CLOUDY    21  18  88 NW3       29.68R
ELLSWORTH AFB  CLOUDY    25  19  80 NW8       29.69R WCI  16
PHILIP         CLOUDY    24  22  91 W12       29.71R WCI  13
PINE RIDGE     CLEAR     14  12  92 CALM      29.73R
SPEARFISH      FAIR      28  18  64 W6        29.70R WCI  22
WINNER         FAIR      28  24  85 W8        29.69R WCI  20
$$

SDZ004>011-016>023-039-040-221000-
NORTHEAST SOUTH DAKOTA

CITY           SKY/WX    TMP DP  RH WIND       PRES   REMARKS
ABERDEEN       CLOUDY    30  26  85 W6        29.66R WCI  24
WATERTOWN      FOG       31  31 100 NW8       29.61R VSB 3/4 WCI  23
BROOKINGS      CLOUDY    31  30  96 NW7       29.62R FOG     WCI  24
SISSETON         N/A     34  34 100 N5        29.63R WCI  30
$$

SDZ017-020-022-023-036>040-048>070-221000-
SOUTHEAST SOUTH DAKOTA

CITY           SKY/WX    TMP DP  RH WIND       PRES   REMARKS
SIOUX FALLS    CLOUDY    32  30  92 NW10      29.62S WCI  24
HURON          CLOUDY    30  29  96 NW9       29.67R WCI  22
CHAMBERLAIN    MOCLDY    21  20  96 CALM      29.69R FOG
MITCHELL       CLOUDY    32  29  88 W8        29.67R WCI  25
YANKTON        CLOUDY    30  27  86 NW14      29.65R WCI  20
$$

ABBREVIATIONS USED IN REMARKS
   TC - TEMPERATURE IN CELSIUS
  WCI - WIND CHILL INDEX
   HX - HEAT INDEX
  VSB - VISIBILITY





USA.gov is the U.S. government's official web portal to all federal, state and local government web resources and services.